Weather History for ESGG - April, 2014

Change the Weather History Date:

Friday, April 4, 2014

  Actual Average Record
Temperature  
Mean Temperature 39 °F -  
Max Temperature 50 °F - - ()
Min Temperature 28 °F - - ()
Degree Days  
Heating Degree Days 26    
Moisture  
Dew Point 25 °F    
Average Humidity 59    
Maximum Humidity 86    
Minimum Humidity 32    
Precipitation  
Precipitation 0.00 in - - ()
Sea Level Pressure  
Sea Level Pressure 30.04 in    
Wind  
Wind Speed 6 mph ()    
Max Wind Speed 10 mph    
Max Gust Speed -    
T = Trace of Precipitation, MM = Missing Value Source: Averaged Metar Reports

Daily Weather History Graph

Daily Weather History Graph

Search for Another Location

Airport or City:

Trip Planner

Search our weather history database for the weather conditions in past years. The results will help you decide how hot, cold, wet, or windy it might be!

Date:

Astronomy

Apr. 04, 2014 Rise Set
Actual Time 6:31 AM CEST 7:57 PM CEST
Civil Twilight 5:51 AM CEST 8:37 PM CEST
Nautical Twilight 5:01 AM CEST 9:28 PM CEST
Astronomical Twilight 4:04 AM CEST 10:26 PM CEST
Moon 8:49 AM CEST (4/4) 12:44 AM CEST (4/4)
Length of Visible Light 14h 46m
Length of Day
13h 25m
Waxing Crescent, 23% of the Moon is Illuminated
Apr 4
Waxing Crescent
Apr 7
First Quarter
Apr 15
Full
Apr 22
Last Quarter
Apr 29
New

Hourly Weather History & Observations

Time (CEST) Temp. Windchill Dew Point Humidity Pressure Visibility Wind Dir Wind Speed Gust Speed Precip Events Conditions
12:20 AM 32.0 °F 27.5 °F 23.0 °F 69% 29.95 in - NE 4.6 mph - N/A   Clear
12:50 AM 33.8 °F 27.7 °F 23.0 °F 65% 29.95 in - East 6.9 mph - N/A   Clear
1:20 AM 35.6 °F 30.7 °F 23.0 °F 60% 29.95 in - East 5.8 mph - N/A   Clear
1:50 AM 35.6 °F 29.9 °F 23.0 °F 60% 29.98 in - East 6.9 mph - N/A   Clear
2:20 AM 33.8 °F 27.0 °F 23.0 °F 65% 29.98 in - East 8.1 mph - N/A   Clear
2:50 AM 32.0 °F 25.6 °F 23.0 °F 69% 29.98 in - ESE 6.9 mph - N/A   Clear
3:20 AM 32.0 °F 25.6 °F 23.0 °F 69% 30.01 in - ESE 6.9 mph - N/A   Clear
3:50 AM 30.2 °F 23.4 °F 23.0 °F 75% 30.01 in - SE 6.9 mph - N/A   Clear
4:20 AM 30.2 °F 22.6 °F 23.0 °F 75% 30.01 in - SE 8.1 mph - N/A   Clear
4:50 AM 28.4 °F 21.2 °F 23.0 °F 80% 30.01 in - SE 6.9 mph - N/A   Clear
5:50 AM 30.2 °F 26.7 °F 24.8 °F 80% 30.04 in - ESE 3.5 mph - N/A   Clear
6:20 AM 28.4 °F 23.3 °F 24.8 °F 86% 30.04 in - East 4.6 mph - N/A   Clear
6:50 AM 30.2 °F 24.3 °F 24.8 °F 80% 30.04 in - East 5.8 mph - N/A   Clear
7:20 AM 30.2 °F 26.7 °F 24.8 °F 80% 30.06 in - ESE 3.5 mph - N/A   Clear
7:50 AM 32.0 °F 28.7 °F 24.8 °F 75% 30.06 in - SE 3.5 mph - N/A   Clear
8:20 AM 33.8 °F 28.6 °F 26.6 °F 75% 30.06 in - ESE 5.8 mph - N/A   Clear
8:50 AM 35.6 °F 29.2 °F 26.6 °F 70% 30.06 in - ESE 8.1 mph - N/A   Clear
9:20 AM 37.4 °F 32.8 °F 26.6 °F 65% 30.06 in - SE 5.8 mph - N/A   Clear
9:50 AM 39.2 °F 35.0 °F 24.8 °F 56% 30.06 in - SE 5.8 mph - N/A   Clear
10:20 AM 41.0 °F 35.8 °F 24.8 °F 53% 30.09 in - SE 8.1 mph - N/A   Clear
10:50 AM 41.0 °F 35.8 °F 24.8 °F 53% 30.09 in - SE 8.1 mph - N/A   Clear
11:20 AM 42.8 °F 38.0 °F 24.8 °F 49% 30.09 in - SE 8.1 mph - N/A   Clear
11:50 AM 44.6 °F 39.7 °F 24.8 °F 46% 30.09 in - ESE 9.2 mph - N/A   Clear
12:20 PM 44.6 °F 40.2 °F 24.8 °F 46% 30.09 in - East 8.1 mph - N/A   Clear
12:50 PM 46.4 °F 42.4 °F 24.8 °F 43% 30.09 in - East 8.1 mph - N/A   Clear
1:20 PM 46.4 °F 42.4 °F 24.8 °F 43% 30.09 in - East 8.1 mph - N/A   Clear
1:50 PM 46.4 °F 42.9 °F 23.0 °F 40% 30.06 in - ESE 6.9 mph - N/A   Clear
2:20 PM 48.2 °F - 24.8 °F 40% 30.06 in - ESE 8.1 mph - N/A   Clear
2:50 PM 48.2 °F - 23.0 °F 37% 30.06 in - East 10.4 mph - N/A   Clear
3:20 PM 48.2 °F - 24.8 °F 40% 30.06 in - ESE 9.2 mph - N/A   Clear
3:50 PM 50.0 °F - 23.0 °F 35% 30.06 in - East 6.9 mph - N/A   Clear
4:20 PM 50.0 °F - 23.0 °F 35% 30.04 in - SE 8.1 mph - N/A   Clear
4:50 PM 50.0 °F - 23.0 °F 35% 30.04 in - Variable 6.9 mph - N/A   Clear
5:20 PM 48.2 °F - 23.0 °F 37% 30.04 in - East 6.9 mph - N/A   Clear
5:50 PM 50.0 °F - 21.2 °F 32% 30.04 in - SE 6.9 mph - N/A   Clear
6:20 PM 48.2 °F - 23.0 °F 37% 30.04 in - ESE 6.9 mph - N/A   Clear
6:50 PM 44.6 °F 40.2 °F 28.4 °F 53% 30.04 in - WSW 8.1 mph - N/A   Clear
7:20 PM 42.8 °F 39.3 °F 28.4 °F 57% 30.04 in - WSW 5.8 mph - N/A   Clear
7:50 PM 39.2 °F 37.0 °F 28.4 °F 65% 30.04 in - WSW 3.5 mph - N/A   Clear
8:20 PM 39.2 °F 37.0 °F 28.4 °F 65% 30.06 in - WSW 3.5 mph - N/A   Clear
8:50 PM 37.4 °F - 28.4 °F 70% 30.06 in - Calm Calm - N/A   Clear
9:20 PM 37.4 °F - 28.4 °F 70% 30.06 in - NNE 2.3 mph - N/A   Clear
9:50 PM 37.4 °F - 28.4 °F 70% 30.06 in - Variable 2.3 mph - N/A   Clear
10:20 PM 33.8 °F - 26.6 °F 75% 30.06 in - East 2.3 mph - N/A   Clear
10:50 PM 37.4 °F 32.8 °F 26.6 °F 65% 30.06 in - SE 5.8 mph - N/A   Clear
11:20 PM 35.6 °F 28.6 °F 26.6 °F 70% 30.06 in - SE 9.2 mph - N/A   Clear